64371 station(s) have been heard in the last 24 hours.

<< 715 716 717 718 719 720 721 >>
  Name/Id Latest heard Comment/Other Map
Symbol VE6GHZ C 1788315263 2m Voice 147.09000 +0.600 Map
Symbol OZ4SKK B 1788315263 70cm Voice (D-Star) 432.65500MHz -2.0000MHz Map
Symbol 9W4GHT-D 1788315263 70cm MMDVM Voice (DMR) 439.35500MHz -5.0000MHz, APRS for DMRGateway Map
Symbol DB0SHL-10 1788315263 VFDB-Z90-Ringberhotel, Map
Symbol KB9PVH-8 1788315263 0h86b10149 UV=0.0 Map
Symbol KD9LKX-2 1788315263 DigiPi http://digipi.org Map
Symbol OE3XVI-B 1788315263 440 Voice 438.27500MHz -7.6000MHz Map
Symbol DB0NAS 1788315262 145.7125MHz -0.6MHz CTCSS 123Hz FM-Funknetz Map
Symbol SP6PNZ 1788315262 145.500MHz Klub SP6PNZ im. Ziemi Nyskiej Map
Symbol DK0RZ 1788315262 Clubheim DARC E39 Ratzeburg Map
Symbol SR2ZYT-1 1788315262 LoRa APRS PV Map
Symbol AK6VL-D 1788315262 70cm MMDVM Voice (DMR) 428.35000MHz -6.0000MHz, APRS for DMRGateway Map
Symbol DG1RUE 1788315262 Map
Symbol BA3MSA-1 1788315262 Hello FMO Map
Symbol VA3RAW-3 1788315262 Map
Symbol DO1LAA-11 1788315262 LoRa APRS iGate Wilster RX only Map
Symbol BI9BFV-10 1788315262 E1[TRACKER MODE] Map
Symbol YO5OMH-2 1788315262 APRS W2 Digipeater - CODRU 435m - www.yo2kqt.ro Map
Symbol KAP9925NS 1788315262 439.925MHz -500 Kapiti 9925 70CM UHF National System Repeater https://www.nzart.org.nz/info/repeater-maps Map
Symbol TA3F-10 1788315262 RX/TX LoRa iGate on 433.775MHz Temp: 33.11C, Humid:31.63% Map
Symbol PY2RIC-B 1788315262 70cm Voice (D-Star) 434.00000MHz +0.0000MHz Map
Symbol IZ4RCU-10 1788315262 ... APRS iGate LoRa tech ... Map
Symbol AF0EJ-14 1788315262 446.000MHz Node 678550 Map
Symbol IR3UAP-C 1788315262 2m Voice (D-Star) 145.57500MHz -0.6000MHz Map
Symbol AF0DE B 1788315262 70cm Voice (D-Star) 434.61250MHz +0.0000MHz Map
Symbol G1PCM-C 1788315262 70cm Voice (D-Star) 432.60000MHz +0.0000MHz Map
Symbol W9VCF-10 1788315262 145.070MHz Winlink Packet Gateway Map
Symbol DB0HZL 1788315262 439.400MHz -7.6MHz CTCSS 123Hz FM-Funknetz Map
Symbol DB0NAS-10 1788315262 DB0NAS Digi+IGate Map
Symbol M0TNI-B 1788315262 70cm Voice (D-Star) 438.80000MHz +0.0000MHz, APRS for ircDDBGateway Map
Symbol PE1BZF-B 1788315262 70cm Voice (D-Star) 439.00000MHz +0.0000MHz, APRS for ircDDBGateway Map
Symbol BD4BE-9 1788315261 `_5 Map
Symbol AE7ZE-1 1788315261 Map
Symbol 146.94RPT 1788315261 146.940MHz - offset 123hz; ARES repeater. Net on Thursdays @ 9PM Map
Symbol DK0AUE-99 1788315261 JO42EV Wildesh.#Hamcamp Gateway/B=100 Map
Symbol OK1OBR-1 1788315261 digi&i-gate Spalava JN79US Map
Symbol WB8SKP 1788315261 Map
Symbol LW1DAV-D 1788315261 70cm MMDVM Voice (DMR) 438.80000MHz +0.0000MHz, APRS for DMRGateway Map
Symbol W9VCF 1788315261 145.070MHz Winlink VARA FM Gateway Map
Symbol TB2ELT 1788315261 Op.Cemil Erden Map
Symbol JL3ZHD-I 1788315261 D-STAR Freeaccess point 438.950Mhz Map
Symbol 13RF029 1788315261 13RF029 APRS gateway HEIGHT=33 GAIN=3 Map
Symbol DL6RS B 1788315261 70cm Voice (D-Star) 434.71250MHz +0.0000MHz, APRS for ircDDBGateway Map
Symbol DB0SLK 1788315261 Tetra TMO, 438.275 MHz (-7.6 MHz), MCC 901, MNC 9998 Map
Symbol 9H5SN-D 1788315261 70cm MMDVM Voice (DMR) 433.52500MHz +0.0000MHz, APRS for DMRGateway Map
Symbol BH5HVM-1 1788315261 E1[NRL_2100A_D4_260205 11.9V RX:437.4500:88.5 TX:437.4500:88.5] HELLO Map
Symbol SA7PGN-12 1788315260 B=079 Map
Symbol W3OO-1 1788315260 W3OO WIDE1 Digipeater Map
Symbol W4QXL-B 1788315260 440 Voice 433.10000MHz +0.0000MHz Map
Symbol K7CB-B 1788315260 70cm Voice (D-Star) 446.50000MHz +0.0000MHz Map